OpenBCM V2.0.3 (Linux)

Packet Radio Mailbox

IZ3LSV

[San Dona' di P. JN]

 Login: GUEST





  
I0OJJ  > AMSAT    18.07.26 09:48l 319 Lines 15205 Bytes #999 (0) @ WW
BID : A5RJ5_I0OJJ
Read: GUEST
Subj: 2Line Orbital Elements
Path: IZ3LSV<ED1ZAC<LU4ECL<LU9DCE<VE3CGR<VE3TOK<IR0AAB<I0OJJ
Sent: 260710/0030z @:I0OJJ.ITA.EU [Rome] $:A5RJ5_I0OJJ

>From i0ojj@i0ojj.ampr.org Fri Jul 10 02:30:04 2026
Received: from i0ojj.ampr.org by i0ojj.ampr.org (JNOS2.0q.1) with SMTP
	id AA17065121 ; Fri, 10 Jul 2026 02:30:04 +0200
Received: by i0ojj.ampr.org with SMTP
	id AA17065117 ; Fri, 10 Jul 2026 02:27:03 +0200
Message-Id: <17065118@i0ojj.ampr.org>
>From: i0ojj@i0ojj.ampr.org

SB KEPS @ AMSAT  $ORB26191.1
2Line Orbital Elements 26191.AMSAT

QST de W1STR

AMSAT Orbital Elements for Amateur Satellites in TLE Format
>From Orbital Analysis Office
New England Sci-Tech STEM Education Center
Natick MA July 10, 2026
To all radio amateurs


These element sets describe the orbits of various satellites 
in use by the amateur radio community. For details see:
www.amsat.org/keplerian-elements-formats/

A daily update of element sets is available at:
www.amsat.org/tle/daily-bulletin.txt
or without bulletin text:
www.amsat.org/tle/dailytle.txt


AO-07
1 07530U 74089B   26190.32897198 -.00000038  00000-0  49724-4 0  9990
2 07530 101.9902 203.8062 0012663  89.1895 342.2557 12.53698424363293
UO-11
1 14781U 84021B   26190.70623792  .00000917  00000-0  98723-4 0  9990
2 14781  97.8072 156.0317 0009168 106.4358 253.7868 14.90840274260488
LO-19
1 20442U 90005G   26190.01952797  .00000058  00000-0  37537-4 0  9996
2 20442  98.8846 212.4261 0012308 138.2781 221.9344 14.34129510905525
AO-27
1 22825U 93061C   26190.16568541  .00000044  00000-0  33846-4 0  9998
2 22825  98.6870 257.5702 0009081  42.3993 317.7889 14.30948062710148
FO-29
1 24278U 96046B   26190.04746765  .00000001  00000-0  35079-4 0  9994
2 24278  98.5224  35.9232 0350601  39.8653 322.7685 13.53275148476120
GO-32
1 25397U 98043D   26190.68260220  .00000032  00000-0  34171-4 0  9999
2 25397  99.0080 184.0097 0002038 123.5145 236.6227 14.24432637454532
ISS
1 25544U 98067A   26190.70194686  .00005376  00000-0  10580-3 0  9997
2 25544  51.6304 188.6620 0006668 275.8666  84.1562 15.48959671575242
NO-44
1 26931U 01043C   26190.71931582  .00000061  00000-0  53843-4 0  9997
2 26931  67.0489 185.9927 0005974 266.2577  93.7842 14.31963636293670
SO-50
1 27607U 02058C   26190.07047632  .00000528  00000-0  80074-4 0  9992
2 27607  64.5518  61.2774 0074702 258.4036 100.8678 14.83090961267701
CO-55
1 27844U 03031E   26189.95445865  .00000197  00000-0  10410-3 0  9990
2 27844  98.6739 198.2397 0010685 118.8005 241.4249 14.24348882194779
RS-22
1 27939U 03042A   26190.90199990  .00001018  00000-0  16487-3 0  9992
2 27939  98.3481  15.9040 0010788 190.2727 278.6487 14.73509643218898
CO-65
1 32785U 08021C   26190.85228278  .00003026  00000-0  19206-3 0  9998
2 32785  97.8283 172.7468 0007395 321.0588  39.0107 15.09668455988611
CO-66
1 32791U 08021J   26189.93516932  .00012773  00000-0  39659-3 0  9992
2 32791  97.7528 188.8830 0002351 170.9352 189.1933 15.33517693990629
RS-30
1 32953U 08025A   26190.79327767  .00000103  00000-0  67330-3 0  9999
2 32953  82.5058 341.3769 0018533 261.5134  98.3845 12.43180747822508
SRMSAT
1 37841U 11058D   26190.62459529  .00000355  00000-0  48802-4 0  9997
2 37841  19.9720 283.6652 0011875  90.4763 307.0339 14.11580289760991
ZACUBE-1
1 39417U 13066B   26190.13615696  .00001581  00000-0  12533-3 0  9997
2 39417  97.8016 152.5825 0043657 174.6140 185.5562 15.01311101684029
Delfi-N3xt
1 39428U 13066N   26189.72723299  .00004758  00000-0  41307-3 0  9991
2 39428  97.8323 110.0195 0075630 134.0067 226.7421 14.95307616677847
GOMX-1
1 39430U 13066Q   26190.79220171  .00000980  00000-0  15327-3 0  9990
2 39430  97.6479  29.8286 0128782   5.5778 354.6828 14.69533953673233
LO-74
1 39440U 13066AA  26190.10024051  .00001725  00000-0  16295-3 0  9998
2 39440  97.8908 139.1745 0056180 316.1471  43.5295 14.93942821680269
AO-73
1 39444U 13066AE  26190.65921882  .00005060  00000-0  31236-3 0  9998
2 39444  97.8287 162.5794 0037793 125.6357 234.8401 15.09773935683052
DTUSAT-2
1 40030U 14033W   26190.82392766  .00004883  00000-0  26303-3 0  9999
2 40030  98.0874 189.9933 0008890 147.9693 212.2079 15.15308119656117
LILACSAT-2
1 40908U 15049K   26190.84120551  .00014753  00000-0  24450-3 0  9992
2 40908  97.4632 228.5514 0008024 157.4718 202.6888 15.52224887599267
Lapan A3
1 41603U 16040E   26190.83858543  .00002386  00000-0  76533-4 0  9994
2 41603  97.1498 186.2428 0008364 299.6211  60.4199 15.33256204558284
CAS-2T
1 41847U 16066G   26190.12607526  .00000881  00000-0  13108-3 0  9993
2 41847  98.3814 265.6112 0342542  63.1325 300.4448 14.44761366507964
TechnoSat
1 42829U 17042E   26190.25612473  .00002728  00000-0  19535-3 0  9992
2 42829  97.4302 347.0777 0017912  22.5340 337.6669 15.05086319490026
AO-91
1 43017U 17073E   26189.43942832  .00004488  00000-0  19744-3 0  9996
2 43017  97.4685  56.2209 0148105 255.0605 103.4188 15.13003288468602
S-Net D
1 43186U 18014G   26190.62815984  .00003501  00000-0  18114-3 0  9994
2 43186  97.5339  95.2792 0006524 309.0111  51.0541 15.16885601462162
S-Net B
1 43187U 18014H   26190.64005213  .00003109  00000-0  16139-3 0  9992
2 43187  97.5346  95.2784 0007096 303.0334  57.0217 15.16855481462167
S-Net A
1 43188U 18014J   26190.62691339  .00003499  00000-0  18102-3 0  9995
2 43188  97.5356  95.4785 0006995 303.8075  56.2492 15.16893875462164
S-Net C
1 43189U 18014K   26190.64404596  .00002998  00000-0  15577-3 0  9991
2 43189  97.5371  95.5735 0008208 293.6580  66.3791 15.16846911460716
Ten-Koh
1 43677U 18084G   26189.76081364  .00002100  00000-0  16078-3 0  9997
2 43677  98.0749  23.0312 0010122  49.4353 310.7751 15.03021162419404
PO-101
1 43678U 18084H   26190.84297669  .00001713  00000-0  14081-3 0  9997
2 43678  98.1221  28.0425 0013047 100.7862 259.4829 15.00550664419615
QO-100
1 43700U 18090A   26190.78785549  .00000156  00000-0  00000+0 0  9994
2 43700   0.0161 349.4100 0002089 163.6570  84.0928  1.00268076 27901
MinXSS-2
1 43758U 18099A   26190.85036105  .00028248  00000-0  53046-3 0  9995
2 43758  97.4527 267.8230 0008269 176.9743 183.1558 15.48538914417633
AO-95
1 43770U 18099N   26190.09661346  .00007443  00000-0  28188-3 0  9999
2 43770  97.4375 250.2670 0006960 265.8117  94.2326 15.27186791416566
SNUSat 2
1 43782U 18099AA  26190.09491038  .00005744  00000-0  25301-3 0  9997
2 43782  97.4050 243.1447 0009577 209.8420 150.2271 15.22178506416364
SnugLite
1 43784U 18099AC  26190.09028942  .00007851  00000-0  29299-3 0  9990
2 43784  97.3859 244.1593 0003012 176.4099 183.7162 15.27667948416665
ITASat 1
1 43786U 18099AE  26190.08697091  .00004466  00000-0  21430-3 0  9996
2 43786  97.4019 241.1634 0010720 275.1562  84.8449 15.19333187416233
EAGLET 1
1 43790U 18099AJ  26189.94349618  .00002773  00000-0  16014-3 0  9994
2 43790  97.4222 239.0362 0009426 269.4461  90.5690 15.13104892415620
ESEO
1 43792U 18099AL  26190.53066419  .00001135  00000-0  85570-4 0  9993
2 43792  97.3951 226.9615 0010626 255.6690 104.3357 15.04307314415168
JO-97
1 43803U 18099AX  26189.68738342  .00012315  00000-0  37202-3 0  9991
2 43803  97.4119 252.6045 0006239 178.6652 181.4609 15.34370872416921
Suomi 100
1 43804U 18099AY  26190.13490669  .00008296  00000-0  29743-3 0  9995
2 43804  97.4178 250.4522 0009925 193.1896 166.9086 15.28933488416771
ISAT
1 43879U 18111D   26190.25149462  .00104241  00000-0  86630-3 0  9992
2 43879  97.5854 127.2412 0006520 149.6441 210.5199 15.69812662414622
UWE-4
1 43880U 18111E   26190.27481266  .00027640  00000-0  53768-3 0  9990
2 43880  97.5841 119.7053 0005271 218.3666 141.7210 15.47549208414192
Sparrow
1 43881U 18111F   26189.81750316  .00202288  00000-0  95472-3 0  9995
2 43881  97.6084 132.8354 0006929 142.1755 218.0002 15.82489471414783
Prox-1
1 44339U 19036A   26190.67945983  .00008932  00000-0  84947-3 0  9998
2 44339  23.9963 323.9427 0005528 303.8092  56.1881 14.91170907376837
Taurus 1
1 44530U 19059C   26190.80723506  .00003266  00000-0  52494-3 0  9993
2 44530  98.6434 357.0447 0007699 234.0149 126.0343 14.72335315361975
TO-108
1 44881U 19093C   26190.86343609 -.00000127  00000-0 -83355-5 0  9995
2 44881  97.7520 262.5421 0014059  18.5101 341.6624 14.86553400354783
RS-44
1 44909U 19096E   26190.67762075  .00000014  00000-0  36222-5 0  9994
2 44909  82.5238 324.7599 0218584  91.8312 270.7837 12.79748940305224
SALSAT
1 46495U 20068K   26190.25177099  .00005482  00000-0  19084-3 0  9996
2 46495  97.8858 194.6644 0008594 215.0810 144.9864 15.30117525318730
CSS (TIANHE-1)
1 48274U 21035A   26190.63828422  .00000907  00000-0  16026-4 0  9994
2 48274  41.4689 185.5127 0002646 282.7023  77.3519 15.58017701296677
CUTE
1 49263U 21088D   26190.03769010  .00392812  73988-4  54217-3 0  9993
2 49263  97.4026 291.6163 0002639 338.2434  21.8735 16.06100715266040
TeikyoSat 4
1 49396U 21102B   26190.65826397  .00001024  00000-0  67455-4 0  9999
2 49396  97.3664 219.2679 0011200 208.5917 151.4700 15.09586297256115
Z-Sat
1 49399U 21102E   26190.86872800  .00002323  00000-0  11566-3 0  9999
2 49399  97.3323 225.5037 0017083 161.9323 198.2522 15.18435161256884
KOSEN 1
1 49402U 21102H   26190.68415122  .00005351  00000-0  20304-3 0  9998
2 49402  97.3178 232.4066 0015202 124.8714 235.3957 15.27161211257450
HO-113
1 50466U 21131B   26190.82393709  .00000314  00000-0  11065-3 0  9992
2 50466  98.4979 283.0921 0004913  43.9982 316.1598 14.41379055238371
SNUGLITE 2
1 52899U 22065F   26190.64810450  .00000605  00000-0  12369-3 0  9999
2 52899  98.2228 335.4423 0006500 320.9247  39.1485 14.64388183214281
UmKA 1 (RS40S)
1 57172U 23091G   26190.85740929  .00004092  00000-0  18688-3 0  9998
2 57172  97.5042 249.4692 0013546  47.0116 313.2253 15.21082977167459
CubeBel-2 (EU11S)
1 57175U 23091K   26190.82107252  .00009323  00000-0  32579-3 0  9991
2 57175  97.5042 254.2469 0010101  44.3253 315.8795 15.29737021167762
